24h
KLIENDITUGI:
Saartelennuliinid: +372 58856336 (24/7)
Estairi piletikassa lennujaamas:
+372 6058887; +372 55603687

14.02.2019 õhtune Transaviabaltika lend KTB676 Tallinn - Kärdla ja KTB677 Kärdla – Tallinn väljalend jääb ära. Lennu ära jäämise põhjustab ilmastikuolud Kärdla Lennuväljal. Reisijatele võimaldatakse tasuta lennupileti ümberbroneerimine reisija soovi kohasele mõnele teisele Tallinn-Kärdla või Kärdla-Tallinn lennule. Reisijatele kes ei soovi lennupileti ümberbroneerimist teisele lennule tagastatakse piletiraha. Oma soovist tuleb teada anda e-mailile [email protected] Lisainformatsioon telefonil 58856336

EEKA Kärdla lennuväli FCEO32 EETN 141300

TAF EEKA 141300Z 1414/1420 21012KT 9999 BKN035 TEMPO 1414/1418 3000 DZ BR BKN005 OVC010

TEMPO 1418/1420 BKN007= METAR EEKA 141350Z 22010KT 4500 BR OVC002 02/02 Q1021=
Kuupäev: 
14/02/2019